Time,TemperatureF,DewpointF,PressureIn,WindDirection,WindDirectionDegrees,WindSpeedMPH,WindSpeedGustMPH,Humidity,HourlyPrecipIn,Conditions,Clouds,dailyrainin,SolarRadiationWatts/m^2,SoftwareType,DateUTC
2013-02-04 00:02:00,58.9,31.3,30.00,SSE,153,2.0,4.0,35,0.00,,,0.00,0,Wunderground v.1.15,2013-02-04 06:02:00,
2013-02-04 00:07:00,59.0,30.6,30.00,SE,146,3.0,5.0,34,0.00,,,0.00,0,Wunderground v.1.15,2013-02-04 06:07:00,
2013-02-04 00:13:00,59.1,30.7,29.99,SSE,153,3.0,5.0,34,0.00,,,0.00,0,Wunderground v.1.15,2013-02-04 06:13:00,
2013-02-04 00:18:00,59.2,30.8,29.99,South,169,3.0,5.0,34,0.00,,,0.00,0,Wunderground v.1.15,2013-02-04 06:18:00,
2013-02-04 00:23:00,59.3,30.9,29.99,ESE,121,3.0,4.0,34,0.00,,,0.00,0,Wunderground v.1.15,2013-02-04 06:23:00,
2013-02-04 00:29:00,59.4,30.3,29.99,SSE,156,3.0,6.0,33,0.00,,,0.00,0,Wunderground v.1.15,2013-02-04 06:29:00,
2013-02-04 00:34:00,59.5,30.3,29.99,SE,144,3.0,4.0,33,0.00,,,0.00,0,Wunderground v.1.15,2013-02-04 06:34:00,
2013-02-04 00:40:00,59.5,30.3,29.99,SSE,159,2.0,2.0,33,0.00,,,0.00,0,Wunderground v.1.15,2013-02-04 06:40:00,
2013-02-04 00:45:00,59.4,30.3,29.99,SSE,161,2.0,5.0,33,0.00,,,0.00,0,Wunderground v.1.15,2013-02-04 06:45:00,
2013-02-04 00:50:00,59.3,30.2,29.99,SE,141,2.0,2.0,33,0.00,,,0.00,0,Wunderground v.1.15,2013-02-04 06:50:00,
2013-02-04 00:55:00,59.3,30.2,29.99,South,174,1.0,4.0,33,0.00,,,0.00,0,Wunderground v.1.15,2013-02-04 06:55:00,
2013-02-04 01:00:00,59.2,30.8,29.99,SSE,161,2.0,2.0,34,0.00,,,0.00,0,Wunderground v.1.15,2013-02-04 07:00:00,
2013-02-04 01:06:00,59.3,30.9,29.99,SSE,162,2.0,6.0,34,0.00,,,0.00,0,Wunderground v.1.15,2013-02-04 07:06:00,
2013-02-04 01:11:00,59.4,30.3,29.99,South,179,2.0,4.0,33,0.00,,,0.00,0,Wunderground v.1.15,2013-02-04 07:11:00,
2013-02-04 01:16:00,59.4,30.3,29.99,SSE,153,2.0,9.0,33,0.00,,,0.00,0,Wunderground v.1.15,2013-02-04 07:16:00,
2013-02-04 01:22:00,59.5,31.1,29.98,SE,144,3.0,6.0,34,0.00,,,0.00,0,Wunderground v.1.15,2013-02-04 07:22:00,
2013-02-04 01:27:00,59.6,31.2,29.98,SSE,150,4.0,8.0,34,0.00,,,0.00,0,Wunderground v.1.15,2013-02-04 07:27:00,
2013-02-04 01:33:00,59.6,31.2,29.97,SSE,160,5.0,5.0,34,0.00,,,0.00,0,Wunderground v.1.15,2013-02-04 07:33:00,
2013-02-04 01:38:00,59.6,31.9,29.98,SE,140,4.0,6.0,35,0.00,,,0.00,0,Wunderground v.1.15,2013-02-04 07:38:00,
2013-02-04 01:43:00,59.5,32.5,29.98,SSE,161,3.0,4.0,36,0.00,,,0.00,0,Wunderground v.1.15,2013-02-04 07:43:00,
2013-02-04 01:48:00,59.5,33.2,29.98,South,173,2.0,5.0,37,0.00,,,0.00,0,Wunderground v.1.15,2013-02-04 07:48:00,
2013-02-04 01:53:00,59.5,33.9,29.97,South,170,3.0,6.0,38,0.00,,,0.00,0,Wunderground v.1.15,2013-02-04 07:53:00,
2013-02-04 01:58:00,59.5,33.9,29.97,SE,146,4.0,6.0,38,0.00,,,0.00,0,Wunderground v.1.15,2013-02-04 07:58:00,
2013-02-04 02:04:00,59.3,34.3,29.97,South,181,3.0,4.0,39,0.00,,,0.00,0,Wunderground v.1.15,2013-02-04 08:04:00,
2013-02-04 02:09:00,59.2,34.9,29.97,SSE,150,3.0,5.0,40,0.00,,,0.00,0,Wunderground v.1.15,2013-02-04 08:09:00,
2013-02-04 02:14:00,59.0,35.3,29.97,SSE,159,4.0,7.0,41,0.00,,,0.00,0,Wunderground v.1.15,2013-02-04 08:14:00,
2013-02-04 02:19:00,58.8,35.1,29.96,South,178,4.0,7.0,41,0.00,,,0.00,0,Wunderground v.1.15,2013-02-04 08:19:00,
2013-02-04 02:25:00,58.7,35.7,29.96,South,178,4.0,5.0,42,0.00,,,0.00,0,Wunderground v.1.15,2013-02-04 08:25:00,
2013-02-04 02:30:00,58.5,36.1,29.95,SSE,163,3.0,3.0,43,0.00,,,0.00,0,Wunderground v.1.15,2013-02-04 08:30:00,
2013-02-04 02:35:00,58.4,36.6,29.95,SSE,151,4.0,7.0,44,0.00,,,0.00,0,Wunderground v.1.15,2013-02-04 08:35:00,
2013-02-04 02:41:00,58.3,37.0,29.95,SE,137,4.0,4.0,45,0.00,,,0.00,0,Wunderground v.1.15,2013-02-04 08:41:00,
2013-02-04 02:46:00,58.3,37.0,29.95,SSE,163,3.0,7.0,45,0.00,,,0.00,0,Wunderground v.1.15,2013-02-04 08:46:00,
2013-02-04 02:51:00,58.3,37.6,29.95,SSE,167,3.0,4.0,46,0.00,,,0.00,0,Wunderground v.1.15,2013-02-04 08:51:00,
2013-02-04 02:57:00,58.3,37.6,29.95,SE,143,2.0,10.0,46,0.00,,,0.00,0,Wunderground v.1.15,2013-02-04 08:57:00,
2013-02-04 03:02:00,58.4,37.7,29.95,SSE,166,2.0,2.0,46,0.00,,,0.00,0,Wunderground v.1.15,2013-02-04 09:02:00,
2013-02-04 03:07:00,58.4,38.2,29.95,SSE,157,2.0,7.0,47,0.00,,,0.00,0,Wunderground v.1.15,2013-02-04 09:07:00,
2013-02-04 03:12:00,58.4,38.2,29.95,South,180,2.0,2.0,47,0.00,,,0.00,0,Wunderground v.1.15,2013-02-04 09:12:00,
2013-02-04 03:18:00,58.4,38.8,29.96,South,171,2.0,6.0,48,0.00,,,0.00,0,Wunderground v.1.15,2013-02-04 09:18:00,
2013-02-04 03:23:00,58.4,38.8,29.96,SSE,157,1.0,6.0,48,0.00,,,0.00,0,Wunderground v.1.15,2013-02-04 09:23:00,
2013-02-04 03:28:00,58.4,39.3,29.95,SE,144,2.0,6.0,49,0.00,,,0.00,0,Wunderground v.1.15,2013-02-04 09:28:00,
2013-02-04 03:34:00,58.4,39.3,29.95,South,174,3.0,5.0,49,0.00,,,0.00,0,Wunderground v.1.15,2013-02-04 09:34:00,
2013-02-04 03:39:00,58.3,39.2,29.95,SSE,158,2.0,5.0,49,0.00,,,0.00,0,Wunderground v.1.15,2013-02-04 09:39:00,
2013-02-04 03:44:00,58.3,39.2,29.95,South,171,2.0,4.0,49,0.00,,,0.00,0,Wunderground v.1.15,2013-02-04 09:44:00,
2013-02-04 03:49:00,58.2,39.6,29.94,South,180,2.0,6.0,50,0.00,,,0.00,0,Wunderground v.1.15,2013-02-04 09:49:00,
2013-02-04 03:55:00,58.2,39.6,29.95,South,180,2.0,5.0,50,0.00,,,0.00,0,Wunderground v.1.15,2013-02-04 09:55:00,
2013-02-04 04:00:00,58.1,39.5,29.94,SSE,160,2.0,2.0,50,0.00,,,0.00,0,Wunderground v.1.15,2013-02-04 10:00:00,
2013-02-04 04:06:00,58.0,40.0,29.94,SSE,165,2.0,5.0,51,0.00,,,0.00,0,Wunderground v.1.15,2013-02-04 10:06:00,
2013-02-04 04:12:00,58.0,40.5,29.93,SE,146,3.0,5.0,52,0.00,,,0.00,0,Wunderground v.1.15,2013-02-04 10:12:00,
2013-02-04 04:17:00,58.0,41.0,29.93,SSE,161,3.0,5.0,53,0.00,,,0.00,0,Wunderground v.1.15,2013-02-04 10:17:00,
2013-02-04 04:23:00,58.0,41.4,29.93,SSE,154,3.0,5.0,54,0.00,,,0.00,0,Wunderground v.1.15,2013-02-04 10:23:00,
2013-02-04 04:29:00,58.0,41.4,29.93,SSE,158,3.0,6.0,54,0.00,,,0.00,0,Wunderground v.1.15,2013-02-04 10:29:00,
2013-02-04 04:34:00,58.0,41.9,29.93,South,181,4.0,7.0,55,0.00,,,0.00,0,Wunderground v.1.15,2013-02-04 10:34:00,
2013-02-04 04:39:00,58.0,41.9,29.92,SSE,160,4.0,9.0,55,0.00,,,0.00,0,Wunderground v.1.15,2013-02-04 10:39:00,
2013-02-04 04:45:00,58.0,42.4,29.92,SSE,158,5.0,9.0,56,0.00,,,0.00,0,Wunderground v.1.15,2013-02-04 10:45:00,
2013-02-04 04:50:00,58.0,42.8,29.92,SE,138,5.0,8.0,57,0.00,,,0.00,0,Wunderground v.1.15,2013-02-04 10:50:00,
2013-02-04 04:56:00,57.8,42.7,29.92,SSW,201,4.0,10.0,57,0.00,,,0.00,0,Wunderground v.1.15,2013-02-04 10:56:00,
2013-02-04 05:01:00,57.8,42.7,29.92,SE,142,3.0,5.0,57,0.00,,,0.00,0,Wunderground v.1.15,2013-02-04 11:01:00,
2013-02-04 05:07:00,57.8,42.7,29.92,SSE,161,4.0,8.0,57,0.00,,,0.00,0,Wunderground v.1.15,2013-02-04 11:07:00,
2013-02-04 05:12:00,57.8,43.1,29.92,SSE,167,5.0,6.0,58,0.00,,,0.00,0,Wunderground v.1.15,2013-02-04 11:12:00,
2013-02-04 05:17:00,57.8,42.7,29.92,SE,125,4.0,7.0,57,0.00,,,0.00,0,Wunderground v.1.15,2013-02-04 11:17:00,
2013-02-04 05:22:00,57.8,42.7,29.92,South,169,5.0,5.0,57,0.00,,,0.00,0,Wunderground v.1.15,2013-02-04 11:22:00,
2013-02-04 05:28:00,57.7,43.0,29.92,SSE,161,5.0,8.0,58,0.00,,,0.00,0,Wunderground v.1.15,2013-02-04 11:28:00,
2013-02-04 05:33:00,57.6,42.9,29.92,SE,134,5.0,6.0,58,0.00,,,0.00,0,Wunderground v.1.15,2013-02-04 11:33:00,
2013-02-04 05:39:00,57.5,42.8,29.92,South,169,4.0,6.0,58,0.00,,,0.00,0,Wunderground v.1.15,2013-02-04 11:39:00,
2013-02-04 05:44:00,57.5,43.3,29.92,SSE,163,3.0,5.0,59,0.00,,,0.00,0,Wunderground v.1.15,2013-02-04 11:44:00,
2013-02-04 05:49:00,57.5,43.3,29.92,SSE,166,4.0,5.0,59,0.00,,,0.00,0,Wunderground v.1.15,2013-02-04 11:49:00,
2013-02-04 05:55:00,57.4,43.2,29.92,SE,124,3.0,6.0,59,0.00,,,0.00,0,Wunderground v.1.15,2013-02-04 11:55:00,
2013-02-04 06:00:00,57.4,43.6,29.92,SE,135,3.0,6.0,60,0.00,,,0.00,0,Wunderground v.1.15,2013-02-04 12:00:00,
2013-02-04 06:06:00,57.4,43.6,29.92,SE,134,4.0,6.0,60,0.00,,,0.00,0,Wunderground v.1.15,2013-02-04 12:06:00,
2013-02-04 06:11:00,57.4,44.1,29.91,South,180,5.0,7.0,61,0.00,,,0.00,0,Wunderground v.1.15,2013-02-04 12:11:00,
2013-02-04 06:17:00,57.4,44.5,29.91,SSE,161,4.0,10.0,62,0.00,,,0.00,0,Wunderground v.1.15,2013-02-04 12:17:00,
2013-02-04 06:22:00,57.3,44.8,29.92,South,171,4.0,6.0,63,0.00,,,0.00,0,Wunderground v.1.15,2013-02-04 12:22:00,
2013-02-04 06:27:00,57.4,45.3,29.91,South,173,4.0,8.0,64,0.00,,,0.00,0,Wunderground v.1.15,2013-02-04 12:27:00,
2013-02-04 06:32:00,57.4,45.7,29.92,SSE,152,3.0,4.0,65,0.00,,,0.00,0,Wunderground v.1.15,2013-02-04 12:32:00,
2013-02-04 06:38:00,57.5,45.8,29.92,South,178,3.0,4.0,65,0.00,,,0.00,0,Wunderground v.1.15,2013-02-04 12:38:00,
2013-02-04 06:43:00,57.3,45.6,29.92,South,182,3.0,7.0,65,0.00,,,0.00,0,Wunderground v.1.15,2013-02-04 12:43:00,
2013-02-04 06:48:00,57.3,46.0,29.92,SSE,155,3.0,7.0,66,0.00,,,0.00,0,Wunderground v.1.15,2013-02-04 12:48:00,
2013-02-04 06:54:00,57.1,45.4,29.92,SSE,159,3.0,4.0,65,0.00,,,0.00,0,Wunderground v.1.15,2013-02-04 12:54:00,
2013-02-04 06:59:00,57.2,45.5,29.92,South,186,3.0,9.0,65,0.00,,,0.00,0,Wunderground v.1.15,2013-02-04 12:59:00,
2013-02-04 07:04:00,57.2,45.5,29.92,SSE,160,3.0,6.0,65,0.00,,,0.00,0,Wunderground v.1.15,2013-02-04 13:04:00,
2013-02-04 07:10:00,57.0,45.7,29.93,South,178,2.0,2.0,66,0.00,,,0.00,0,Wunderground v.1.15,2013-02-04 13:10:00,
2013-02-04 07:15:00,56.9,45.7,29.93,SSE,165,2.0,2.0,66,0.00,,,0.00,0,Wunderground v.1.15,2013-02-04 13:15:00,
2013-02-04 07:20:00,56.7,45.5,29.93,SSE,153,2.0,8.0,66,0.00,,,0.00,0,Wunderground v.1.15,2013-02-04 13:20:00,
2013-02-04 07:25:00,56.9,46.1,29.93,South,171,2.0,8.0,67,0.00,,,0.00,0,Wunderground v.1.15,2013-02-04 13:25:00,
2013-02-04 07:31:00,56.5,45.7,29.93,SSE,159,2.0,2.0,67,0.00,,,0.00,5,Wunderground v.1.15,2013-02-04 13:31:00,
2013-02-04 07:36:00,56.3,45.9,29.92,SSE,157,2.0,2.0,68,0.00,,,0.00,5,Wunderground v.1.15,2013-02-04 13:36:00,
2013-02-04 07:42:00,56.1,46.4,29.92,SSE,164,3.0,4.0,70,0.00,,,0.00,0,Wunderground v.1.15,2013-02-04 13:42:00,
2013-02-04 07:47:00,56.2,47.3,29.92,SSE,159,3.0,7.0,72,0.00,,,0.00,7,Wunderground v.1.15,2013-02-04 13:47:00,
2013-02-04 07:52:00,55.7,47.9,29.92,SW,227,3.0,4.0,75,0.00,,,0.00,7,Wunderground v.1.15,2013-02-04 13:52:00,
2013-02-04 07:58:00,55.4,48.3,29.92,South,178,3.0,8.0,77,0.00,,,0.00,14,Wunderground v.1.15,2013-02-04 13:58:00,
2013-02-04 08:03:00,55.1,48.7,29.92,SSE,167,2.0,3.0,79,0.00,,,0.00,25,Wunderground v.1.15,2013-02-04 14:03:00,
2013-02-04 08:08:00,54.9,48.8,29.92,South,184,2.0,4.0,80,0.00,,,0.00,33,Wunderground v.1.15,2013-02-04 14:08:00,
2013-02-04 08:13:00,54.9,49.2,29.92,South,173,2.0,2.0,81,0.00,,,0.00,40,Wunderground v.1.15,2013-02-04 14:13:00,
2013-02-04 08:19:00,55.1,49.7,29.91,South,171,1.0,2.0,82,0.00,,,0.00,49,Wunderground v.1.15,2013-02-04 14:19:00,
2013-02-04 08:24:00,55.3,50.2,29.91,South,177,1.0,1.0,83,0.00,,,0.00,62,Wunderground v.1.15,2013-02-04 14:24:00,
2013-02-04 08:29:00,55.5,50.4,29.91,SSE,154,1.0,4.0,83,0.00,,,0.00,74,Wunderground v.1.15,2013-02-04 14:29:00,
2013-02-04 08:35:00,55.9,50.8,29.91,SSE,150,1.0,2.0,83,0.00,,,0.00,74,Wunderground v.1.15,2013-02-04 14:35:00,
2013-02-04 08:40:00,56.2,51.4,29.92,SE,140,2.0,2.0,84,0.00,,,0.00,90,Wunderground v.1.15,2013-02-04 14:40:00,
2013-02-04 08:45:00,56.7,51.9,29.91,South,176,3.0,6.0,84,0.00,,,0.00,97,Wunderground v.1.15,2013-02-04 14:45:00,
2013-02-04 08:51:00,57.2,52.4,29.91,SSE,168,4.0,5.0,84,0.00,,,0.00,98,Wunderground v.1.15,2013-02-04 14:51:00,
2013-02-04 08:56:00,57.6,52.8,29.91,SSE,158,4.0,6.0,84,0.00,,,0.00,102,Wunderground v.1.15,2013-02-04 14:56:00,
2013-02-04 09:02:00,57.8,52.7,29.91,SE,138,4.0,8.0,83,0.00,,,0.00,107,Wunderground v.1.15,2013-02-04 15:02:00,
2013-02-04 09:07:00,57.9,52.8,29.91,SSE,152,4.0,8.0,83,0.00,,,0.00,114,Wunderground v.1.15,2013-02-04 15:07:00,
2013-02-04 09:12:00,58.0,52.9,29.91,SSE,151,4.0,5.0,83,0.00,,,0.00,116,Wunderground v.1.15,2013-02-04 15:12:00,
2013-02-04 09:18:00,57.8,52.3,29.92,SSE,148,4.0,7.0,82,0.00,,,0.00,142,Wunderground v.1.15,2013-02-04 15:18:00,
2013-02-04 09:23:00,57.8,52.3,29.91,SSE,162,5.0,6.0,82,0.00,,,0.00,156,Wunderground v.1.15,2013-02-04 15:23:00,
2013-02-04 09:28:00,57.9,52.1,29.91,South,169,4.0,7.0,81,0.00,,,0.00,160,Wunderground v.1.15,2013-02-04 15:28:00,
2013-02-04 09:34:00,57.9,52.1,29.91,South,170,3.0,4.0,81,0.00,,,0.00,142,Wunderground v.1.15,2013-02-04 15:34:00,
2013-02-04 09:39:00,57.7,51.6,29.91,South,175,4.0,8.0,80,0.00,,,0.00,149,Wunderground v.1.15,2013-02-04 15:39:00,
2013-02-04 09:44:00,57.7,51.9,29.91,South,181,5.0,5.0,81,0.00,,,0.00,195,Wunderground v.1.15,2013-02-04 15:44:00,
2013-02-04 09:50:00,57.9,51.8,29.92,South,176,3.0,5.0,80,0.00,,,0.00,134,Wunderground v.1.15,2013-02-04 15:50:00,
2013-02-04 09:56:00,58.6,52.4,29.92,South,174,2.0,11.0,80,0.00,,,0.00,462,Wunderground v.1.15,2013-02-04 15:56:00,
2013-02-04 10:01:00,59.6,52.7,29.92,SSW,200,3.0,4.0,78,0.00,,,0.00,594,Wunderground v.1.15,2013-02-04 16:01:00,
2013-02-04 10:06:00,60.0,52.1,29.92,SSE,160,4.0,8.0,75,0.00,,,0.00,629,Wunderground v.1.15,2013-02-04 16:06:00,
2013-02-04 10:12:00,60.3,52.3,29.92,SE,135,4.0,6.0,75,0.00,,,0.00,260,Wunderground v.1.15,2013-02-04 16:12:00,
2013-02-04 10:17:00,60.6,53.0,29.92,SSE,166,3.0,7.0,76,0.00,,,0.00,229,Wunderground v.1.15,2013-02-04 16:17:00,
2013-02-04 10:22:00,60.6,53.0,29.91,South,173,3.0,4.0,76,0.00,,,0.00,149,Wunderground v.1.15,2013-02-04 16:22:00,
2013-02-04 10:28:00,60.6,53.0,29.91,SE,146,3.0,4.0,76,0.00,,,0.00,497,Wunderground v.1.15,2013-02-04 16:28:00,
2013-02-04 10:33:00,60.9,53.3,29.91,SSE,153,3.0,7.0,76,0.00,,,0.00,686,Wunderground v.1.15,2013-02-04 16:33:00,
2013-02-04 10:38:00,61.1,53.5,29.91,SSE,161,5.0,9.0,76,0.00,,,0.00,418,Wunderground v.1.15,2013-02-04 16:38:00,
2013-02-04 10:43:00,61.2,53.6,29.91,SSE,165,5.0,9.0,76,0.00,,,0.00,663,Wunderground v.1.15,2013-02-04 16:43:00,
2013-02-04 10:49:00,61.7,53.7,29.91,SSE,154,6.0,11.0,75,0.00,,,0.00,397,Wunderground v.1.15,2013-02-04 16:49:00,
2013-02-04 10:54:00,62.2,53.8,29.91,SSE,165,5.0,11.0,74,0.00,,,0.00,301,Wunderground v.1.15,2013-02-04 16:54:00,
2013-02-04 10:59:00,62.8,54.8,29.90,South,180,4.0,11.0,75,0.00,,,0.00,645,Wunderground v.1.15,2013-02-04 16:59:00,
2013-02-04 11:05:00,63.6,54.4,29.90,SSW,196,4.0,5.0,72,0.00,,,0.00,443,Wunderground v.1.15,2013-02-04 17:05:00,
2013-02-04 11:11:00,63.9,54.7,29.90,South,171,3.0,5.0,72,0.00,,,0.00,206,Wunderground v.1.15,2013-02-04 17:11:00,
2013-02-04 11:16:00,63.7,54.5,29.90,SSE,149,4.0,9.0,72,0.00,,,0.00,504,Wunderground v.1.15,2013-02-04 17:16:00,
2013-02-04 11:22:00,63.3,54.9,29.89,South,169,4.0,4.0,74,0.00,,,0.00,429,Wunderground v.1.15,2013-02-04 17:22:00,
2013-02-04 11:27:00,63.6,55.2,29.89,SW,223,4.0,4.0,74,0.00,,,0.00,367,Wunderground v.1.15,2013-02-04 17:27:00,
2013-02-04 11:32:00,63.8,55.0,29.89,SSW,203,4.0,7.0,73,0.00,,,0.00,352,Wunderground v.1.15,2013-02-04 17:32:00,
2013-02-04 11:38:00,63.7,54.9,29.89,SE,146,4.0,7.0,73,0.00,,,0.00,306,Wunderground v.1.15,2013-02-04 17:38:00,
2013-02-04 11:43:00,63.8,55.0,29.89,SSE,148,4.0,6.0,73,0.00,,,0.00,299,Wunderground v.1.15,2013-02-04 17:43:00,
2013-02-04 11:48:00,64.2,55.4,29.88,SSE,148,3.0,6.0,73,0.00,,,0.00,294,Wunderground v.1.15,2013-02-04 17:48:00,
2013-02-04 11:54:00,64.3,55.5,29.88,SSE,161,3.0,5.0,73,0.00,,,0.00,394,Wunderground v.1.15,2013-02-04 17:54:00,
2013-02-04 11:59:00,64.8,55.9,29.88,South,183,3.0,12.0,73,0.00,,,0.00,431,Wunderground v.1.15,2013-02-04 17:59:00,
2013-02-04 12:05:00,64.6,55.4,29.88,South,177,3.0,5.0,72,0.00,,,0.00,206,Wunderground v.1.15,2013-02-04 18:05:00,
2013-02-04 12:10:00,64.4,55.6,29.87,South,182,3.0,3.0,73,0.00,,,0.00,316,Wunderground v.1.15,2013-02-04 18:10:00,
2013-02-04 12:16:00,65.4,56.5,29.87,SSE,168,3.0,6.0,73,0.00,,,0.00,684,Wunderground v.1.15,2013-02-04 18:16:00,
2013-02-04 12:21:00,66.6,56.5,29.87,South,171,3.0,5.0,70,0.00,,,0.00,304,Wunderground v.1.15,2013-02-04 18:21:00,
2013-02-04 12:26:00,66.8,56.3,29.87,SSE,152,3.0,6.0,69,0.00,,,0.00,295,Wunderground v.1.15,2013-02-04 18:26:00,
2013-02-04 12:31:00,67.6,56.7,29.87,South,191,3.0,3.0,68,0.00,,,0.00,313,Wunderground v.1.15,2013-02-04 18:31:00,
2013-02-04 12:36:00,67.3,56.4,29.86,WNW,288,3.0,5.0,68,0.00,,,0.00,308,Wunderground v.1.15,2013-02-04 18:36:00,
2013-02-04 12:42:00,66.9,56.0,29.86,South,175,3.0,6.0,68,0.00,,,0.00,322,Wunderground v.1.15,2013-02-04 18:42:00,
2013-02-04 12:47:00,66.7,56.6,29.86,South,178,4.0,6.0,70,0.00,,,0.00,413,Wunderground v.1.15,2013-02-04 18:47:00,
2013-02-04 12:52:00,66.9,56.4,29.85,SE,143,4.0,5.0,69,0.00,,,0.00,396,Wunderground v.1.15,2013-02-04 18:52:00,
2013-02-04 12:57:00,67.6,56.7,29.85,SSE,154,3.0,9.0,68,0.00,,,0.00,239,Wunderground v.1.15,2013-02-04 18:57:00,
2013-02-04 13:03:00,68.1,57.1,29.84,SE,146,3.0,5.0,68,0.00,,,0.00,601,Wunderground v.1.15,2013-02-04 19:03:00,
2013-02-04 13:08:00,68.6,56.8,29.84,SE,130,3.0,6.0,66,0.00,,,0.00,378,Wunderground v.1.15,2013-02-04 19:08:00,
2013-02-04 13:13:00,68.5,56.7,29.84,SE,144,3.0,8.0,66,0.00,,,0.00,243,Wunderground v.1.15,2013-02-04 19:13:00,
2013-02-04 13:18:00,68.0,56.6,29.83,South,186,3.0,8.0,67,0.00,,,0.00,265,Wunderground v.1.15,2013-02-04 19:18:00,
2013-02-04 13:24:00,68.0,56.6,29.83,South,186,3.0,4.0,67,0.00,,,0.00,309,Wunderground v.1.15,2013-02-04 19:24:00,
2013-02-04 13:29:00,68.2,56.8,29.83,SE,134,2.0,8.0,67,0.00,,,0.00,253,Wunderground v.1.15,2013-02-04 19:29:00,
2013-02-04 13:34:00,69.0,57.2,29.83,SSE,157,3.0,7.0,66,0.00,,,0.00,705,Wunderground v.1.15,2013-02-04 19:34:00,
2013-02-04 13:40:00,68.9,57.5,29.82,SE,146,3.0,4.0,67,0.00,,,0.00,686,Wunderground v.1.15,2013-02-04 19:40:00,
2013-02-04 13:45:00,69.5,57.6,29.82,SE,146,3.0,5.0,66,0.00,,,0.00,677,Wunderground v.1.15,2013-02-04 19:45:00,
2013-02-04 13:50:00,70.2,57.4,29.82,SE,130,3.0,7.0,64,0.00,,,0.00,724,Wunderground v.1.15,2013-02-04 19:50:00,
2013-02-04 13:56:00,70.0,56.8,29.82,SE,138,3.0,8.0,63,0.00,,,0.00,227,Wunderground v.1.15,2013-02-04 19:56:00,
2013-02-04 14:01:00,69.2,56.9,29.81,SSE,147,3.0,7.0,65,0.00,,,0.00,675,Wunderground v.1.15,2013-02-04 20:01:00,
2013-02-04 14:07:00,70.2,57.4,29.81,South,189,4.0,7.0,64,0.00,,,0.00,255,Wunderground v.1.15,2013-02-04 20:07:00,
2013-02-04 14:13:00,69.9,57.2,29.81,SSE,154,3.0,9.0,64,0.00,,,0.00,668,Wunderground v.1.15,2013-02-04 20:13:00,
2013-02-04 14:18:00,69.9,57.2,29.81,SSE,164,3.0,9.0,64,0.00,,,0.00,563,Wunderground v.1.15,2013-02-04 20:18:00,
2013-02-04 14:23:00,69.9,56.7,29.80,SSE,155,2.0,4.0,63,0.00,,,0.00,613,Wunderground v.1.15,2013-02-04 20:23:00,
2013-02-04 14:29:00,70.0,56.8,29.80,SSE,148,3.0,6.0,63,0.00,,,0.00,265,Wunderground v.1.15,2013-02-04 20:29:00,
2013-02-04 14:34:00,70.1,56.9,29.80,ESE,105,4.0,8.0,63,0.00,,,0.00,253,Wunderground v.1.15,2013-02-04 20:34:00,
2013-02-04 14:39:00,70.8,58.0,29.80,SSE,156,3.0,8.0,64,0.00,,,0.00,657,Wunderground v.1.15,2013-02-04 20:39:00,
2013-02-04 14:44:00,71.2,57.1,29.80,SE,124,3.0,7.0,61,0.00,,,0.00,504,Wunderground v.1.15,2013-02-04 20:44:00,
2013-02-04 14:50:00,71.7,57.5,29.80,SE,144,2.0,4.0,61,0.00,,,0.00,531,Wunderground v.1.15,2013-02-04 20:50:00,
2013-02-04 14:55:00,72.0,57.8,29.80,WSW,239,1.0,4.0,61,0.00,,,0.00,438,Wunderground v.1.15,2013-02-04 20:55:00,
2013-02-04 15:00:00,71.8,57.2,29.80,SE,124,2.0,2.0,60,0.00,,,0.00,492,Wunderground v.1.15,2013-02-04 21:00:00,
2013-02-04 15:06:00,70.6,56.5,29.79,SE,144,4.0,7.0,61,0.00,,,0.00,392,Wunderground v.1.15,2013-02-04 21:06:00,
2013-02-04 15:11:00,71.0,57.3,29.80,SSE,151,4.0,5.0,62,0.00,,,0.00,432,Wunderground v.1.15,2013-02-04 21:11:00,
2013-02-04 15:17:00,71.7,57.1,29.80,South,173,2.0,5.0,60,0.00,,,0.00,420,Wunderground v.1.15,2013-02-04 21:17:00,
2013-02-04 15:22:00,71.6,57.4,29.80,SSE,151,2.0,4.0,61,0.00,,,0.00,399,Wunderground v.1.15,2013-02-04 21:22:00,
2013-02-04 15:27:00,72.2,57.5,29.80,SW,233,1.0,4.0,60,0.00,,,0.00,415,Wunderground v.1.15,2013-02-04 21:27:00,
2013-02-04 15:32:00,72.0,56.9,29.79,SSW,192,1.0,6.0,59,0.00,,,0.00,323,Wunderground v.1.15,2013-02-04 21:32:00,
2013-02-04 15:38:00,71.5,56.9,29.79,SSE,147,2.0,6.0,60,0.00,,,0.00,366,Wunderground v.1.15,2013-02-04 21:38:00,
2013-02-04 15:43:00,71.6,57.0,29.79,South,184,2.0,4.0,60,0.00,,,0.00,350,Wunderground v.1.15,2013-02-04 21:43:00,
2013-02-04 15:48:00,71.6,57.0,29.79,SE,146,2.0,8.0,60,0.00,,,0.00,313,Wunderground v.1.15,2013-02-04 21:48:00,
2013-02-04 15:53:00,72.1,56.5,29.80,SSE,148,2.0,6.0,58,0.00,,,0.00,318,Wunderground v.1.15,2013-02-04 21:53:00,
2013-02-04 15:59:00,71.8,56.7,29.80,SSE,157,1.0,6.0,59,0.00,,,0.00,332,Wunderground v.1.15,2013-02-04 21:59:00,
2013-02-04 16:04:00,71.9,56.8,29.80,SSE,157,1.0,1.0,59,0.00,,,0.00,313,Wunderground v.1.15,2013-02-04 22:04:00,
2013-02-04 16:10:00,71.9,56.3,29.80,SSE,148,2.0,2.0,58,0.00,,,0.00,294,Wunderground v.1.15,2013-02-04 22:10:00,
2013-02-04 16:16:00,71.8,56.2,29.80,SSE,149,2.0,3.0,58,0.00,,,0.00,179,Wunderground v.1.15,2013-02-04 22:16:00,
2013-02-04 16:21:00,71.9,56.3,29.80,SE,146,1.0,1.0,58,0.00,,,0.00,102,Wunderground v.1.15,2013-02-04 22:21:00,
2013-02-04 16:26:00,71.5,55.9,29.80,SE,133,2.0,4.0,58,0.00,,,0.00,151,Wunderground v.1.15,2013-02-04 22:26:00,
2013-02-04 16:32:00,71.4,56.3,29.80,SSE,162,2.0,6.0,59,0.00,,,0.00,121,Wunderground v.1.15,2013-02-04 22:32:00,
2013-02-04 16:37:00,70.9,56.3,29.80,East,85,4.0,6.0,60,0.00,,,0.00,93,Wunderground v.1.15,2013-02-04 22:37:00,
2013-02-04 16:42:00,70.8,56.2,29.79,East,94,3.0,4.0,60,0.00,,,0.00,84,Wunderground v.1.15,2013-02-04 22:42:00,
2013-02-04 16:47:00,70.8,56.7,29.79,East,90,2.0,4.0,61,0.00,,,0.00,65,Wunderground v.1.15,2013-02-04 22:47:00,
2013-02-04 16:53:00,70.8,56.7,29.79,ESE,106,3.0,8.0,61,0.00,,,0.00,62,Wunderground v.1.15,2013-02-04 22:53:00,
2013-02-04 16:58:00,70.7,56.6,29.79,ESE,110,4.0,8.0,61,0.00,,,0.00,51,Wunderground v.1.15,2013-02-04 22:58:00,
2013-02-04 17:03:00,70.4,56.8,29.79,SE,128,4.0,5.0,62,0.00,,,0.00,46,Wunderground v.1.15,2013-02-04 23:03:00,
2013-02-04 17:08:00,70.2,56.6,29.79,South,169,4.0,6.0,62,0.00,,,0.00,40,Wunderground v.1.15,2013-02-04 23:08:00,
2013-02-04 17:14:00,70.1,56.5,29.79,SE,139,4.0,6.0,62,0.00,,,0.00,49,Wunderground v.1.15,2013-02-04 23:14:00,
2013-02-04 17:19:00,70.0,56.4,29.79,SE,138,3.0,6.0,62,0.00,,,0.00,44,Wunderground v.1.15,2013-02-04 23:19:00,
2013-02-04 17:24:00,69.9,56.3,29.79,SE,143,4.0,6.0,62,0.00,,,0.00,35,Wunderground v.1.15,2013-02-04 23:24:00,
2013-02-04 17:30:00,69.7,56.5,29.80,East,98,4.0,4.0,63,0.00,,,0.00,30,Wunderground v.1.15,2013-02-04 23:30:00,
2013-02-04 17:35:00,69.6,56.4,29.80,SSE,159,4.0,5.0,63,0.00,,,0.00,30,Wunderground v.1.15,2013-02-04 23:35:00,
2013-02-04 17:40:00,69.5,56.3,29.80,SSE,157,2.0,4.0,63,0.00,,,0.00,26,Wunderground v.1.15,2013-02-04 23:40:00,
2013-02-04 17:45:00,69.3,56.2,29.80,East,101,2.0,5.0,63,0.00,,,0.00,19,Wunderground v.1.15,2013-02-04 23:45:00,
2013-02-04 17:51:00,69.1,56.4,29.81,ESE,103,3.0,4.0,64,0.00,,,0.00,11,Wunderground v.1.15,2013-02-04 23:51:00,
2013-02-04 17:56:00,68.9,56.2,29.81,ESE,109,1.0,5.0,64,0.00,,,0.00,7,Wunderground v.1.15,2013-02-04 23:56:00,
2013-02-04 18:02:00,68.6,56.4,29.81,ESE,109,1.0,2.0,65,0.00,,,0.00,5,Wunderground v.1.15,2013-02-05 00:02:00,
2013-02-04 18:07:00,68.3,56.1,29.81,ESE,105,2.0,2.0,65,0.00,,,0.00,0,Wunderground v.1.15,2013-02-05 00:07:00,
2013-02-04 18:12:00,68.1,56.3,29.81,ESE,119,2.0,2.0,66,0.00,,,0.00,0,Wunderground v.1.15,2013-02-05 00:12:00,
2013-02-04 18:18:00,67.9,56.5,29.81,ESE,103,2.0,4.0,67,0.00,,,0.00,0,Wunderground v.1.15,2013-02-05 00:18:00,
2013-02-04 18:24:00,67.5,56.2,29.82,East,100,3.0,5.0,67,0.00,,,0.00,0,Wunderground v.1.15,2013-02-05 00:24:00,
2013-02-04 18:29:00,67.3,56.4,29.82,East,82,3.0,6.0,68,0.00,,,0.00,0,Wunderground v.1.15,2013-02-05 00:29:00,
2013-02-04 18:34:00,67.1,56.6,29.82,ESE,113,2.0,4.0,69,0.00,,,0.00,0,Wunderground v.1.15,2013-02-05 00:34:00,
2013-02-04 18:40:00,66.9,56.4,29.82,ESE,113,1.0,2.0,69,0.00,,,0.00,0,Wunderground v.1.15,2013-02-05 00:40:00,
2013-02-04 18:46:00,66.7,56.6,29.82,ENE,77,2.0,6.0,70,0.00,,,0.00,0,Wunderground v.1.15,2013-02-05 00:46:00,
2013-02-04 18:51:00,66.5,56.4,29.83,SE,125,2.0,2.0,70,0.00,,,0.00,0,Wunderground v.1.15,2013-02-05 00:51:00,
2013-02-04 18:56:00,66.4,56.3,29.83,ESE,122,2.0,4.0,70,0.00,,,0.00,0,Wunderground v.1.15,2013-02-05 00:56:00,
2013-02-04 19:02:00,66.3,56.6,29.83,ESE,112,2.0,3.0,71,0.00,,,0.00,0,Wunderground v.1.15,2013-02-05 01:02:00,
2013-02-04 19:08:00,66.1,56.4,29.83,East,97,2.0,5.0,71,0.00,,,0.00,0,Wunderground v.1.15,2013-02-05 01:08:00,
2013-02-04 19:13:00,66.0,56.3,29.83,SE,131,2.0,3.0,71,0.00,,,0.00,0,Wunderground v.1.15,2013-02-05 01:13:00,
2013-02-04 19:19:00,65.9,56.6,29.83,SE,131,2.0,4.0,72,0.00,,,0.00,0,Wunderground v.1.15,2013-02-05 01:19:00,
2013-02-04 19:24:00,65.8,56.5,29.84,SE,124,2.0,6.0,72,0.00,,,0.00,0,Wunderground v.1.15,2013-02-05 01:24:00,
2013-02-04 19:29:00,65.6,56.3,29.84,SE,129,2.0,6.0,72,0.00,,,0.00,0,Wunderground v.1.15,2013-02-05 01:29:00,
2013-02-04 19:34:00,65.5,56.2,29.84,East,87,2.0,4.0,72,0.00,,,0.00,0,Wunderground v.1.15,2013-02-05 01:34:00,
2013-02-04 19:40:00,65.4,56.5,29.84,ESE,119,2.0,4.0,73,0.00,,,0.00,0,Wunderground v.1.15,2013-02-05 01:40:00,
2013-02-04 19:45:00,65.3,56.4,29.85,ESE,103,2.0,4.0,73,0.00,,,0.00,0,Wunderground v.1.15,2013-02-05 01:45:00,
2013-02-04 19:51:00,65.1,56.2,29.85,ESE,102,2.0,2.0,73,0.00,,,0.00,0,Wunderground v.1.15,2013-02-05 01:51:00,
2013-02-04 19:56:00,65.0,56.5,29.85,ESE,113,1.0,6.0,74,0.00,,,0.00,0,Wunderground v.1.15,2013-02-05 01:56:00,
2013-02-04 20:02:00,64.9,56.4,29.85,East,96,1.0,4.0,74,0.00,,,0.00,0,Wunderground v.1.15,2013-02-05 02:02:00,
2013-02-04 20:07:00,64.8,56.3,29.85,ESE,104,2.0,4.0,74,0.00,,,0.00,0,Wunderground v.1.15,2013-02-05 02:07:00,
2013-02-04 20:12:00,64.7,56.6,29.85,ESE,104,2.0,2.0,75,0.00,,,0.00,0,Wunderground v.1.15,2013-02-05 02:12:00,
2013-02-04 20:17:00,64.7,56.6,29.85,ESE,104,1.0,2.0,75,0.00,,,0.00,0,Wunderground v.1.15,2013-02-05 02:17:00,
2013-02-04 20:22:00,64.5,56.4,29.86,ESE,103,0.0,1.0,75,0.00,,,0.00,0,Wunderground v.1.15,2013-02-05 02:22:00,
2013-02-04 20:28:00,64.3,56.2,29.86,ESE,104,0.0,1.0,75,0.00,,,0.00,0,Wunderground v.1.15,2013-02-05 02:28:00,
2013-02-04 20:33:00,64.1,56.0,29.86,ESE,104,0.0,0.0,75,0.00,,,0.00,0,Wunderground v.1.15,2013-02-05 02:33:00,
2013-02-04 20:39:00,63.8,56.1,29.86,ESE,109,0.0,5.0,76,0.00,,,0.00,0,Wunderground v.1.15,2013-02-05 02:39:00,
2013-02-04 20:44:00,63.5,56.2,29.86,ESE,109,1.0,1.0,77,0.00,,,0.00,0,Wunderground v.1.15,2013-02-05 02:44:00,
2013-02-04 20:50:00,63.3,56.0,29.86,ESE,111,0.0,0.0,77,0.00,,,0.00,0,Wunderground v.1.15,2013-02-05 02:50:00,
2013-02-04 20:55:00,63.2,56.2,29.86,ESE,111,0.0,2.0,78,0.00,,,0.00,0,Wunderground v.1.15,2013-02-05 02:55:00,
2013-02-04 21:01:00,63.1,56.1,29.86,ESE,111,1.0,1.0,78,0.00,,,0.00,0,Wunderground v.1.15,2013-02-05 03:01:00,
2013-02-04 21:06:00,63.0,56.4,29.86,SSE,151,2.0,5.0,79,0.00,,,0.00,0,Wunderground v.1.15,2013-02-05 03:06:00,
2013-02-04 21:11:00,62.8,56.5,29.86,ESE,119,3.0,5.0,80,0.00,,,0.00,0,Wunderground v.1.15,2013-02-05 03:11:00,
2013-02-04 21:16:00,62.8,56.5,29.87,ESE,121,4.0,5.0,80,0.00,,,0.00,0,Wunderground v.1.15,2013-02-05 03:16:00,
2013-02-04 21:22:00,62.8,56.5,29.87,SE,132,3.0,4.0,80,0.00,,,0.00,0,Wunderground v.1.15,2013-02-05 03:22:00,
2013-02-04 21:27:00,62.7,56.8,29.87,SSE,163,3.0,6.0,81,0.00,,,0.00,0,Wunderground v.1.15,2013-02-05 03:27:00,
2013-02-04 21:32:00,62.7,56.8,29.87,ESE,111,3.0,3.0,81,0.00,,,0.00,0,Wunderground v.1.15,2013-02-05 03:32:00,
2013-02-04 21:38:00,62.5,56.6,29.87,ESE,113,3.0,5.0,81,0.00,,,0.00,0,Wunderground v.1.15,2013-02-05 03:38:00,
2013-02-04 21:43:00,62.3,56.7,29.87,ESE,110,3.0,3.0,82,0.00,,,0.00,0,Wunderground v.1.15,2013-02-05 03:43:00,
2013-02-04 21:48:00,62.2,56.6,29.87,SE,133,4.0,7.0,82,0.00,,,0.00,0,Wunderground v.1.15,2013-02-05 03:48:00,
2013-02-04 21:54:00,62.1,56.5,29.87,SE,132,4.0,8.0,82,0.00,,,0.00,0,Wunderground v.1.15,2013-02-05 03:54:00,
2013-02-04 21:59:00,61.9,56.7,29.87,ESE,116,3.0,8.0,83,0.00,,,0.00,0,Wunderground v.1.15,2013-02-05 03:59:00,
2013-02-04 22:04:00,61.8,56.6,29.87,ESE,110,3.0,7.0,83,0.00,,,0.00,0,Wunderground v.1.15,2013-02-05 04:04:00,
2013-02-04 22:09:00,61.7,56.5,29.87,SE,136,4.0,7.0,83,0.00,,,0.00,0,Wunderground v.1.15,2013-02-05 04:09:00,
2013-02-04 22:15:00,61.6,56.4,29.87,SE,127,4.0,4.0,83,0.00,,,0.00,0,Wunderground v.1.15,2013-02-05 04:15:00,
2013-02-04 22:20:00,61.5,56.6,29.87,East,99,4.0,7.0,84,0.00,,,0.00,0,Wunderground v.1.15,2013-02-05 04:20:00,
2013-02-04 22:25:00,61.3,56.4,29.87,East,96,4.0,7.0,84,0.00,,,0.00,0,Wunderground v.1.15,2013-02-05 04:25:00,
2013-02-04 22:31:00,61.3,56.4,29.87,ENE,77,4.0,5.0,84,0.00,,,0.00,0,Wunderground v.1.15,2013-02-05 04:31:00,
2013-02-04 22:36:00,61.2,56.3,29.88,East,88,4.0,5.0,84,0.00,,,0.00,0,Wunderground v.1.15,2013-02-05 04:36:00,
2013-02-04 22:41:00,61.1,56.2,29.88,SE,132,3.0,3.0,84,0.00,,,0.00,0,Wunderground v.1.15,2013-02-05 04:41:00,
2013-02-04 22:47:00,60.9,56.4,29.88,SE,131,2.0,5.0,85,0.00,,,0.00,0,Wunderground v.1.15,2013-02-05 04:47:00,
2013-02-04 22:52:00,60.9,56.4,29.88,ESE,113,3.0,4.0,85,0.00,,,0.00,0,Wunderground v.1.15,2013-02-05 04:52:00,
2013-02-04 22:57:00,60.9,56.7,29.88,East,79,3.0,8.0,86,0.00,,,0.00,0,Wunderground v.1.15,2013-02-05 04:57:00,
2013-02-04 23:00:00,60.8,56.3,29.88,ESE,115,3.0,3.0,85,0.00,,,0.00,0,Wunderground v.1.15,2013-02-05 05:00:00,
2013-02-04 23:02:00,60.8,56.3,29.88,East,88,3.0,3.0,85,0.00,,,0.00,0,Wunderground v.1.15,2013-02-05 05:02:00,
2013-02-04 23:03:00,60.8,56.6,29.88,East,87,3.0,3.0,86,0.00,,,0.00,0,Wunderground v.1.15,2013-02-05 05:03:00,
2013-02-04 23:07:00,60.7,56.5,29.88,East,100,3.0,5.0,86,0.00,,,0.00,0,Wunderground v.1.15,2013-02-05 05:07:00,
2013-02-04 23:12:00,60.8,56.6,29.89,East,86,3.0,3.0,86,0.00,,,0.00,0,Wunderground v.1.15,2013-02-05 05:12:00,
2013-02-04 23:18:00,60.7,56.5,29.89,East,86,2.0,3.0,86,0.00,,,0.00,0,Wunderground v.1.15,2013-02-05 05:18:00,
2013-02-04 23:23:00,60.6,56.4,29.89,East,86,0.0,1.0,86,0.00,,,0.00,0,Wunderground v.1.15,2013-02-05 05:23:00,
2013-02-04 23:28:00,60.4,56.2,29.89,East,86,0.0,1.0,86,0.00,,,0.00,0,Wunderground v.1.15,2013-02-05 05:28:00,
2013-02-04 23:34:00,60.3,56.1,29.89,East,86,1.0,4.0,86,0.00,,,0.00,0,Wunderground v.1.15,2013-02-05 05:34:00,
2013-02-04 23:39:00,60.4,56.5,29.89,East,79,2.0,6.0,87,0.00,,,0.00,0,Wunderground v.1.15,2013-02-05 05:39:00,
2013-02-04 23:45:00,60.3,56.4,29.89,East,79,1.0,2.0,87,0.00,,,0.00,0,Wunderground v.1.15,2013-02-05 05:45:00,
2013-02-04 23:50:00,60.2,56.3,29.89,East,79,0.0,0.0,87,0.00,,,0.00,0,Wunderground v.1.15,2013-02-05 05:50:00,
2013-02-04 23:55:00,60.0,56.1,29.89,East,79,0.0,2.0,87,0.00,,,0.00,0,Wunderground v.1.15,2013-02-05 05:55:00,